Location: Campestrin
(46.4667°N, 11.7167°E)
Time: 03:23:04
(UTC+00:00)

Timation 1 Rocket - Pass Details

Date: 18 April 2021
Orbit: 900 x 907 km, 70.0° (Epoch: 16 May)

Event Time Altitude Azimuth Distance (km) Brightness Sun altitude
Exits shadow 21:33:37 76° 232° (SW) 932 4.2 -28.3°
Maximum altitude 21:34:06 84° 298° (WNW) 912 4.2 -28.3°
Drops below altitude 10° 21:40:06 10° 27° (NNE) 2,586 7.1 -28.8°
Sets 21:42:36 0° 29° (NNE) 3,530 7.9 -29.0°
